Probability
0 0 0 0 0 0 0 0 0 0 0 0 0 0 0 0 0 0 0 0 0 0 0 0 0 0 0 0 0 0 0 0 0 0 0 0 0 0 0 0 0 0 0
0 0 0 0 0 0 0 0 0 0 0 0 0 0 0 0 0 0 0 0 0 0 0 0 0 0 0 0 0 0 0 0 0 0 0 0 0 0 0 0 0 0 0
0 0 0 0 0 0 0 0 0 0 0 0 0 0 0 0 0 0 0 0 0 0 0 0 0 0 0 0 0 0 0 0 0 0 0 0 0 0 0 0 0 0 0
0 0 0 0 0 0 0 0 0 0 0 0 0 0 0 0 0 0 0 0 0 0 0 0 0 0 0 0 0 0 0 0 0 0 0 0 0 0 0 0 0 0 0
0 0 0 0 0 0 0 0 0 0 0 0 0 0 0 0 0 0 0 0 0 0 0 0 0 0 0 0 0 0 0 0 0 0 0 0 0 0 0 0 0 0 0
0 0 0 0 0 0 0 0 0 0 0 0 0 0 0 0 0 0 0 0 0 0 0 0 0 0 0 0 0 0 0 0 0 0 0 0 0 0 0 0 0 0 0
0 0 0 0 0 0 0 0 0 0 0 0 0 0 0 0 0 0 0 0 0 0 0 0 0 0 0 0 0 0 0 0 0 0 0 0 0 0 0 0 0 0 0
0 0 0 0 0 0 0 0 0 0 0 0 0 0 0 0 0 0 0 0 0 0 0 0 0 0 0 0 0 0 0 0 0 0 0 0 0 0 0 0 0 0 0
0 0 0 0 0 0 0 0 0 0 0 0 0 0 0 0 0 0 0 0 0 0 0 0 0 0 0 0 0 0 0 0 0 0 0 0 0 0 0 0 0 0 0
0 0 0 0 0 0 0 0 0 0 0 0 0 0 0 0 0 0 0 0 0 0 0 0 0 0 0 0 0 0 0 0 0 0 0 0 0 0 0 0 0 0 0
0 0 0 0 0 0 0 0 0 0 0 0 0 0 0 0 0 0 0 0 0 0 0 0 0 0 0 0 0 0 0 0 0 0 0 0 0 0 0 0 0 0 0
0 0 0 0 0 0 0 0 0 0 0 0 0 0 0 0 0 0 0 0 0 0 0 0 0 0 0 0 0 0 0 0 0 0 0 0 0 0 0 0 0 0 0
0 0 0 0 0 0 0 0 0 0 0 0 0 0 0 0 0 0 0 0 0 0 0 0 0 0 0 0 0 0 0 0 0 0 0 0 0 0 0 0 0 0 0
0 0 0 0 0 0 0 0 0 0 0 0 0 0 0 0 0 0 0 0 0 0 0 0 0 0 0 0 0 0 0 0 0 0 0 0 0 0 0 0 0 0 0
0 0 0 0 0 0 0 0 0 0 0 0 0 0 0 0 0 0 0 0 0 0 0 0 0 0 0 0 0 0 0 0 0 0 0 0 0 0 0 0 0 0 0
0 0 0 0 0 0 0 0 0 0 0 0 0 0 0 0 0 0 0 0 0 0 0 0 0 0 0 0 0 0 0 0 0 0 0 0 0 0 0 0 0 0 0
0 0 0 0 0 0 0 0 0 0 0 0 0 0 0 0 0 0 0 0 0 0 0 0 0 0 0 0 0 0 0 0 0 0 0 0 0 0 0 0 0 0 0
0 0 0 0 0 0 0 0 0 0 0 0 0 0 0 0 0 0 0 0 0 0 0 0 0 0 0 0 0 0 0 0 0 0 0 0 0 0 0 0 0 0 0
0 0 0 0 0 0 0 0 0 0 0 0 0 0 0 0 0 0 0 0 0 0 0 0 0 0 0 0 0 0 0 0 0 0 0 0 0 0 0 0 0 0 0
0 0 0 0 0 0 0 0 0 0 0 0 0 0 0 0 0 0 0 0 0 0 0 0 0 0 0 0 0 0 0 0 0 0 0 0 0 0 0 0 0 0 0
0 0 0 0 0 0 0 0 0 0 0 0 0 0 0 0 0 0 0 0 0 0 0 0 0 0 0 0 0 0 0 0 0 0 0 0 0 0 0 0 0 0 0
0 0 0 0 0 0 0 0 0 0 0 0 0 0 0 0 0 0 0 0 0 0 0 0 0 0 0 0 0 0 0 0 0 0 0 0 0 0 0 0 0 0 0
0 0 0 0 0 0 0 0 0 0 0 0 0 0 0 0 0 0 0 0 0 0 0 0 0 0 0 0 0 0 0 0 0 0 0 0 0 0 0 0 0 0 0
0 0 0 0 0 0 0 0 0 0 0 0 0 0 0 0 0 0 0 0 0 0 0 0 0 0 0 0 0 0 0 0 0 0 0 0 0 0 0 0 0 0 0
0 0 0 0 0 0 0 0 0 0 0 0 0 0 0 0 0 0 0 0 0 0 0 0 0 0 0 0 0 0 0 0 0 0 0 0 0 0 0 0 0 0 0
0 0 0 0 0 0 0 0 0 0 0 0 0 0 0 0 0 0 0 0 0 0 0 0 0 0 0 0 0 0 0 0 0 0 0 0 0 0 0 0 0 0 0
Wind_Speed
4 4 9 11 12 12 13 13 13 13 14 14 14 15 15 15 15 15 16 16 16 16 16 17 17 17 17 17 17 17 17 18 18 18 17 18 18 18 18 17 15 11 19
7 5 9 11 12 13 13 13 13 13 13 14 14 14 14 15 15 15 15 15 15 15 16 16 16 16 16 16 16 16 16 17 16 16 16 14 16 17 17 16 16 11 17
8 6 8 11 12 13 13 13 12 13 13 13 14 14 14 14 15 15 15 14 14 15 15 15 15 15 15 15 15 16 16 16 15 15 13 7 9 16 16 16 16 16 16
9 7 7 11 12 13 13 13 12 12 13 13 13 14 14 14 14 14 14 13 14 14 14 14 15 14 14 14 15 15 15 15 14 13 7 5 6 14 15 15 15 15 15
7 6 8 11 12 13 13 12 12 12 12 13 13 14 14 14 13 13 13 13 13 13 13 13 14 13 13 13 14 14 14 13 13 10 6 5 5 12 14 14 14 14 14
7 6 8 11 12 13 12 12 12 12 12 12 13 13 13 13 13 12 12 12 12 12 12 12 12 12 13 13 13 13 12 12 9 6 5 5 4 11 13 13 12 12 12
7 6 7 10 11 12 12 12 12 12 12 12 12 13 12 12 12 12 12 11 11 11 11 11 11 11 11 11 11 11 11 10 6 5 5 4 5 11 11 11 11 11 11
8 6 6 9 10 10 11 11 11 11 11 11 11 12 12 11 11 11 11 11 11 11 10 10 10 10 10 10 10 10 9 7 6 5 4 4 6 9 9 10 10 10 10
7 6 5 5 7 9 9 10 10 10 10 10 10 10 9 10 10 9 9 10 10 10 9 9 9 9 9 9 8 8 7 7 4 3 3 3 5 7 8 8 8 9 9
6 6 6 5 5 5 6 9 10 10 9 9 9 8 8 8 8 8 7 8 9 9 9 8 8 8 8 7 7 7 6 5 3 3 2 2 4 6 6 7 7 7 7
8 7 6 6 6 5 5 7 8 9 9 9 8 9 7 4 4 5 6 7 7 7 7 7 7 7 6 6 6 6 5 2 2 1 2 3 3 4 4 5 5 6 6
12 10 7 7 6 6 5 4 4 4 5 5 5 5 4 4 3 4 5 6 6 6 5 6 6 5 5 2 3 4 2 2 1 1 2 4 3 2 2 3 3 4 4
12 11 10 8 7 6 4 4 3 3 3 4 5 5 4 3 2 2 2 2 3 3 2 2 3 2 2 1 1 1 1 1 0 1 2 4 3 2 2 1 2 2 3
11 12 11 10 8 7 5 4 4 3 3 4 5 6 4 3 3 3 2 2 2 1 2 1 1 1 1 1 1 1 1 1 1 1 2 5 4 4 3 2 2 2 2
12 13 12 11 11 9 7 5 6 5 5 5 4 5 6 4 4 4 3 2 3 2 2 2 2 1 1 1 1 1 2 2 2 2 2 4 5 5 5 5 4 3 3
14 13 12 13 12 10 9 7 6 6 5 5 5 6 7 5 5 4 4 4 3 3 3 3 3 2 2 1 2 2 2 2 2 2 2 3 5 5 6 6 5 5 4
13 12 13 13 13 13 12 10 7 6 6 6 6 7 7 6 6 5 4 4 4 4 3 2 2 1 2 2 2 3 2 3 3 3 3 2 2 4 5 6 6 5 4
11 12 13 12 13 14 12 10 8 7 8 7 6 7 9 8 7 6 5 5 4 4 3 3 3 2 2 2 2 2 2 2 3 3 3 3 2 2 3 5 5 5 5
13 13 14 14 15 15 13 10 9 8 8 7 7 7 8 9 9 7 6 5 5 4 4 4 3 3 3 3 3 2 3 3 4 3 4 4 3 3 2 3 3 4 5
12 13 14 14 14 13 10 8 7 8 8 7 8 8 10 9 10 9 6 6 6 5 5 4 4 4 3 3 2 2 3 4 3 4 4 3 3 3 3 2 2 2 3
11 13 15 16 15 12 10 11 11 11 10 9 9 10 11 10 11 10 7 7 7 7 7 7 5 5 4 2 1 2 3 3 4 4 3 3 3 3 3 3 2 2 2
14 15 16 17 15 15 13 11 8 8 7 8 7 10 11 12 12 10 11 9 9 7 8 8 6 4 4 4 3 1 2 3 2 3 3 3 4 2 3 3 3 3 2
14 16 15 17 17 16 14 7 5 5 4 6 9 10 12 13 13 12 12 10 10 9 9 10 9 9 6 5 5 4 3 4 2 2 2 3 3 3 3 3 3 3 3
14 13 15 15 16 15 15 12 13 13 14 14 10 9 10 13 13 13 12 12 11 10 10 10 10 8 7 6 5 5 5 3 3 2 2 2 2 3 4 3 3 3 3
12 12 12 13 14 14 14 17 17 15 14 8 7 9 11 11 13 13 13 12 12 11 11 10 10 10 9 8 6 5 5 5 4 4 4 2 2 3 4 4 4 3 3
9 9 10 11 13 12 15 17 18 19 16 11 11 11 11 9 10 13 13 13 12 11 11 11 11 12 10 10 8 6 6 5 6 6 7 5 4 3 3 3 4 4 3
Wind_Direction
169 178 156 139 132 126 121 117 114 112 109 107 106 103 101 100 97 94 93 93 92 91 90 88 87 85 82 80 78 77 76 74 72 72 72 73 73 72 71 69 65 59 66
150 162 150 142 135 131 126 123 120 117 114 112 111 108 105 103 101 98 97 97 96 96 94 91 89 87 86 85 83 81 79 77 74 71 68 68 72 72 70 70 69 68 67
139 147 142 138 137 135 131 128 125 122 119 116 115 112 110 108 105 103 100 100 101 99 97 94 91 90 90 89 87 84 81 79 75 70 62 48 66 72 70 68 68 68 68
140 139 139 139 140 139 137 134 131 127 124 120 118 116 114 111 109 107 105 104 104 103 100 97 94 91 93 92 90 86 83 79 74 66 47 40 56 72 71 69 67 66 66
135 135 140 142 145 144 142 138 135 132 128 125 122 120 117 114 112 111 109 107 106 106 103 100 97 95 95 94 93 89 85 79 70 56 41 40 49 72 71 70 68 65 64
136 136 145 146 149 148 145 142 140 138 134 130 126 124 121 119 116 116 114 112 110 109 108 104 100 98 99 97 97 94 89 81 64 48 40 36 46 72 73 72 70 67 65
143 141 149 149 150 150 149 147 145 143 139 136 132 129 126 125 123 123 122 119 117 114 111 108 105 100 103 103 101 99 93 85 71 53 40 30 58 72 72 71 69 67 65
149 146 148 152 152 153 154 152 150 148 145 141 138 136 134 132 131 130 129 127 124 121 118 115 112 107 105 106 105 102 93 82 71 55 40 26 62 73 72 70 66 64 62
150 147 149 151 154 157 156 155 153 149 147 146 143 140 136 135 135 132 133 134 132 128 124 121 117 112 108 109 110 106 95 85 72 48 34 18 52 70 72 70 66 63 59
158 158 157 154 154 155 156 158 155 152 150 146 140 135 133 132 131 132 134 137 140 136 132 128 123 114 106 106 108 109 103 84 70 49 20 2 37 62 67 67 64 59 56
178 176 169 164 162 158 157 161 157 155 154 147 141 138 130 122 123 128 141 143 144 143 142 137 129 113 96 91 99 105 95 83 73 34 351 345 27 50 58 57 56 51 49
190 188 182 177 172 166 166 155 154 155 154 149 146 143 134 134 138 136 149 150 144 144 146 145 132 105 87 71 81 88 84 90 74 353 319 331 351 20 35 42 43 38 33
191 191 190 187 180 175 169 163 163 157 156 158 158 155 146 140 139 134 132 138 136 136 121 121 102 94 98 97 95 104 130 122 193 296 308 315 315 316 339 2 13 14 13
194 197 194 190 188 186 177 175 173 172 174 175 173 167 159 157 163 164 163 162 157 148 149 138 138 142 134 147 168 178 189 202 238 270 291 301 302 292 296 302 306 313 328
201 201 198 193 194 191 187 188 187 189 188 185 180 181 176 174 179 179 180 180 182 173 174 175 183 195 214 228 230 216 225 231 242 253 283 296 296 290 288 289 287 288 293
206 204 199 198 198 194 195 197 196 196 193 189 191 191 187 184 182 184 189 192 196 190 186 187 196 202 221 229 248 241 237 239 244 250 255 286 292 288 282 282 285 288 287
207 202 200 201 199 199 200 201 199 198 196 199 199 195 194 191 189 189 194 202 203 192 187 187 200 202 225 229 246 247 242 242 245 246 248 249 271 283 278 274 278 282 287
205 203 204 201 202 204 204 202 201 199 200 204 201 198 199 198 192 191 199 207 197 184 185 190 193 207 225 227 241 251 249 248 247 242 241 241 241 254 270 268 272 275 280
209 205 204 203 203 204 205 204 203 200 204 205 201 203 202 201 196 196 204 203 187 187 193 195 197 198 214 226 240 254 253 247 247 243 241 240 234 231 236 257 267 277 273
212 208 207 205 206 202 201 203 205 209 211 208 207 207 202 202 199 200 205 199 186 192 200 198 203 202 207 209 231 258 257 252 247 242 239 233 228 226 220 224 242 271 266
214 210 209 207 206 198 199 203 207 214 213 212 212 209 205 203 200 202 205 199 195 204 207 199 194 203 213 174 193 277 275 250 242 242 234 227 226 221 212 214 216 225 264
217 215 213 211 206 202 204 203 204 203 209 212 209 210 208 206 203 205 207 205 201 205 205 201 196 195 203 181 182 200 289 306 271 237 223 222 225 215 215 213 206 211 221
220 217 215 213 209 206 204 192 185 186 194 202 210 213 211 208 207 207 208 206 204 205 210 207 202 200 208 202 195 185 204 236 276 277 230 222 221 216 218 210 206 208 208
224 220 217 215 211 207 199 196 197 204 213 216 212 211 206 207 210 210 209 209 208 208 212 209 205 205 203 210 207 216 215 190 201 272 275 240 219 221 220 215 212 210 205
224 218 215 213 212 206 201 203 205 214 220 216 202 204 207 208 210 211 210 211 212 213 214 208 204 206 208 210 204 197 214 221 212 220 254 253 250 235 223 215 211 207 202
228 218 213 209 212 207 204 206 209 215 216 209 206 209 211 210 210 211 212 214 215 215 214 212 209 209 211 213 212 206 195 197 202 210 231 232 232 232 223 216 212 206 198